COSMOS 1428

导读

COSMOS 1428(宇宙1428)是苏联(CIS)于1983年1月12日发射入轨的宇宙系列卫星。该系列是苏联大规模开展的综合性卫星工程,涵盖军事侦察、空间科学实验、技术试验等多元任务。作为冷战时期苏联航天活动的产物,它延续了宇宙卫星系列的任务传统,承担特定空间探测或技术验证工作,印证了苏联在上世纪80年代稳定的航天发射能力,是该系列卫星发展历程中的一员。

Basic Information
目录编号:
13757
目录名称:
COSMOS 1428
国际标识:
1983-001A
轨道中心:
EARTH
卫星名称:
COSMOS 1428
卫星全名:
--
卫星状态:
在轨 (已飞行15861 天)
发射日期:
1983-01-12 UTC
国别 :
俄罗斯(独联体) (CIS)
星等 :
--
Orbit Information
数据来源 国际轨道数据
星历时间: 2026-06-16T13:17:13+0800
7小时前
查看轨道信息
半长轴: 7352.366km
偏心率: 0.0033373
轨道倾角: 82.912°
近地点辐角 244.750°
升交点赤经 42.466°
平近点角 237.740°
近地点: 949.691km
远地点: 998.767km
周期: 104.568分钟
每日圈数: 13.770894
Detailed Information
使用方式:
暂无
2D Orbit Map
3D Orbit Map
Orbit Altitude Analysis Chart
Orbit Inclination Analysis Chart
Orbit Comprehensive Analysis Chart
View Comprehensive Chart